Regional Weather Roundup
Issued by NWS

Home | Current Version | Previous Version | Text Only | Print | Product List | Glossary Off
Versions: 1 2 3 4 5 6 7 8 9 10 11 12 13 14 15 16 17 18 19 20 21 22 23 24 25 26 27 28 29 30 31 32 33 34 35 36 37 38 39 40 41 42 43 44 45 46 47 48 49 50

000
ASUS43 KLOT 221900
RWRIL

ILLINOIS REGIONAL WEATHER ROUNDUP
NATIONAL WEATHER SERVICE CHICAGO/ROMEOVILLE IL
200 PM CDT FRI MAY 22 2015

NOTE: "FAIR" INDICATES FEW OR NO CLOUDS BELOW 12,000 FEET WITH NO
SIGNIFICANT WEATHER AND/OR OBSTRUCTIONS TO VISIBILITY.

* THESE STATIONS ARE NOT UNDER NWS QUALITY CONTROL. THEY ALSO MAY NOT
  REPORT WEATHER SUCH AS PRECIPITATION OR FOG.

ILZ001-002-007-009-015-016-024-222000-
NORTHWEST ILLINOIS

CITY           SKY/WX    TMP DP  RH WIND       PRES   REMARKS
MOLINE         SUNNY     76  34  21 VRB5      30.19F
STERLING*      SUNNY     75  43  31 N8        30.21F
$$

ILZ003-004-008-010-011-017-018-222000-
NORTH CENTRAL ILLINOIS

CITY           SKY/WX    TMP DP  RH WIND       PRES   REMARKS
ROCKFORD       MOSUNNY   71  38  29 S6        30.24S
$$

ILZ005-006-012>014-019>023-222000-
NORTHEAST ILLINOIS

CITY           SKY/WX    TMP DP  RH WIND       PRES   REMARKS
CHICAGO-OHARE  MOSUNNY   65  29  25 E9        30.24S
CHICAGO-MIDWAY MOSUNNY   68  30  24 E9        30.24S
AURORA         SUNNY     73  34  23 CALM      30.22S
WAUKEGAN       SUNNY     57  27  31 NE8       30.26S
DUPAGE AIRPORT SUNNY     69  36  29 NE7       30.23R
WHEELING       SUNNY     61  28  28 NE8       30.27S
NORTHERLY ISL    N/A     54  38  54 N12         N/A
$$

LMZ740>746-222000-
SOUTHERN LAKE MICHIGAN

STATION/POSITION SKY/WX   TEMP    WIND        PRES    VSBY  WAVE
                          AIR SEA DIR/SP/G                  HT/PER
                          (F)     (DEG/KT/KT) (MB)    (MI)  (FT/S)
SOUTHERN BUOY              41 38  350/  8/ 10 1025.9F
HARRISON CRIB              47     360/ 11/ 12   N/A
BURNHAM HARBOR             54      30/  9/ 12   N/A
CALUMET HARBOR             53     360/ 10/ 14   N/A
BURNS HARBOR               51      40/  9/ 10 1024.7S
MICHIGAN CITY              49      10/ 11/ 12   N/A
MICHIGAN CITY 6N           48 51   30/ 10/ 14   N/A           2/ 3
ST. JOSEPH                 51 53   20/ 12/ 14   N/A           2/ 3
$$

ILZ025>027-034>036-040-047-049-050-058-095>099-222000-
WEST-CENTRAL ILLINOIS

CITY           SKY/WX    TMP DP  RH WIND       PRES   REMARKS
QUINCY         CLOUDY    73  39  29 W6        30.23S HAZE
$$

ILZ028>032-037-038-041>044-048-051>054-059>061-222000-
CENTRAL ILLINOIS

CITY           SKY/WX    TMP DP  RH WIND       PRES   REMARKS
DECATUR        MOSUNNY   76  43  30 VRB6      30.22S
PEORIA         MOSUNNY   78  39  24 MISG      30.21S
SPRINGFIELD    PTSUNNY   78  41  26 CALM      30.22S
TAYLORVILLE    NOT AVBL
$$

ILZ033-039-045-046-055>057-062-063-222000-
EAST-CENTRAL ILLINOIS

CITY           SKY/WX    TMP DP  RH WIND       PRES   REMARKS
CHAMPAIGN      SUNNY     78  42  27 NW8       30.21S
MATTOON        MOSUNNY   75  45  34 NW9       30.21F
$$

ILZ079-100>102-222000-
SOUTHWEST ILLINOIS

CITY           SKY/WX    TMP DP  RH WIND       PRES   REMARKS
BELLEVILLE     PTSUNNY   74  49  41 VRB3      30.23S
CAHOKIA*       CLOUDY    75  48  38 CALM      30.24S
$$

ILZ064>066-069>071-074>076-080>082-084>086-088>090-092>094-222000-
SOUTH-CENTRAL ILLINOIS

CITY           SKY/WX    TMP DP  RH WIND       PRES   REMARKS
CARBONDALE     MOSUNNY   72  48  42 SW8       30.26S
MARION         MOSUNNY   73  52  46 W12       30.27S
MT. VERNON     MOSUNNY   75  52  43 SW7       30.25F
$$

ILZ067-068-072-073-078-083-087-091-222000-
SOUTHEAST ILLINOIS

CITY           SKY/WX    TMP DP  RH WIND       PRES   REMARKS
LAWRENCEVILLE  SUNNY     73  50  44 NW8       30.24F
ROBINSON*      SUNNY     72  47  40 SW8       30.24F
$$

ABBREVIATIONS USED IN REMARKS
   TC - TEMPERATURE IN CELSIUS
  WCI - WIND CHILL INDEX
   HX - HEAT INDEX
  VSB - VISIBILITY
$$




USA.gov is the U.S. government's official web portal to all federal, state and local government web resources and services.